�������l�o���
Date,Time,MP-1(��Sv/h),MP-2(��Sv/h),MP-3(��Sv/h),MP-4(��Sv/h),MP-5(��Sv/h),MP-6(��Sv/h),MP-7(��Sv/h),MP-8(��Sv/h),����,����(m/s),���J
2024/05/03,00:00,0.516,0.784,0.489,0.978,0.707,0.317,0.559,0.521,��,6.9,��
2024/05/03,00:10,0.515,0.785,0.489,0.979,0.706,0.315,0.556,0.522,��쐼,6.9,��
2024/05/03,00:20,0.514,0.785,0.490,0.977,0.707,0.316,0.558,0.520,��,7.5,��
2024/05/03,00:30,0.515,0.785,0.488,0.977,0.705,0.316,0.559,0.519,��,7.4,��
2024/05/03,00:40,0.514,0.785,0.490,0.978,0.708,0.315,0.558,0.520,��,7.5,��
2024/05/03,00:50,0.516,0.784,0.489,0.979,0.708,0.315,0.556,0.519,��쐼,7.2,��
2024/05/03,01:00,0.515,0.785,0.489,0.977,0.705,0.316,0.558,0.520,��쐼,6.7,��
2024/05/03,01:10,0.515,0.785,0.489,0.979,0.708,0.315,0.556,0.519,��쐼,6.1,��
2024/05/03,01:20,0.517,0.786,0.490,0.977,0.709,0.316,0.557,0.520,��쐼,6.1,��
2024/05/03,01:30,0.515,0.782,0.489,0.977,0.708,0.315,0.559,0.520,��쐼,5.1,��
2024/05/03,01:40,0.517,0.782,0.489,0.979,0.709,0.315,0.559,0.520,��쐼,4.1,��
2024/05/03,01:50,0.515,0.784,0.489,0.977,0.706,0.316,0.556,0.520,��쐼,3.8,��
2024/05/03,02:00,0.515,0.784,0.489,0.977,0.706,0.315,0.558,0.519,��,3.2,��
2024/05/03,02:10,0.514,0.782,0.491,0.977,0.707,0.318,0.558,0.520,��쐼,2.2,��
2024/05/03,02:20,0.515,0.784,0.488,0.979,0.707,0.314,0.558,0.519,��,2.6,��
2024/05/03,02:30,0.513,0.783,0.488,0.977,0.707,0.315,0.558,0.518,��,2.6,��
2024/05/03,02:40,0.516,0.782,0.489,0.977,0.706,0.315,0.557,0.519,��,3.0,��
2024/05/03,02:50,0.515,0.787,0.488,0.977,0.709,0.316,0.558,0.518,��,3.0,��
2024/05/03,03:00,0.516,0.784,0.490,0.976,0.706,0.316,0.557,0.520,��,2.2,��
2024/05/03,03:10,0.516,0.785,0.489,0.978,0.707,0.317,0.558,0.519,��,1.7,��
2024/05/03,03:20,0.515,0.783,0.490,0.977,0.709,0.316,0.560,0.519,��쓌,1.5,��
2024/05/03,03:30,0.515,0.784,0.489,0.975,0.708,0.316,0.559,0.521,��쓌,2.2,��
2024/05/03,03:40,0.516,0.784,0.489,0.977,0.706,0.316,0.558,0.521,��쓌,3.2,��
2024/05/03,03:50,0.515,0.783,0.491,0.977,0.708,0.315,0.557,0.520,��,3.7,��
2024/05/03,04:00,0.513,0.784,0.489,0.978,0.707,0.315,0.559,0.520,��쐼,3.6,��
2024/05/03,04:10,0.514,0.784,0.490,0.977,0.707,0.317,0.557,0.520,��쐼,4.5,��
2024/05/03,04:20,0.514,0.783,0.490,0.977,0.706,0.315,0.556,0.521,��쐼,6.0,��
2024/05/03,04:30,0.515,0.783,0.489,0.976,0.708,0.316,0.558,0.521,��쐼,7.9,��
2024/05/03,04:40,0.514,0.784,0.490,0.978,0.707,0.315,0.557,0.520,��쐼,7.2,��
2024/05/03,04:50,0.515,0.782,0.489,0.978,0.706,0.315,0.558,0.521,��쐼,6.3,��
2024/05/03,05:00,0.514,0.784,0.489,0.977,0.707,0.314,0.558,0.519,��쐼,6.1,��
2024/05/03,05:10,0.514,0.784,0.489,0.975,0.706,0.315,0.558,0.520,��쐼,5.7,��
2024/05/03,05:20,0.515,0.782,0.490,0.977,0.707,0.317,0.559,0.522,��쐼,5.6,��
2024/05/03,05:30,0.515,0.785,0.490,0.977,0.706,0.317,0.557,0.521,��쐼,5.1,��
2024/05/03,05:40,0.515,0.783,0.489,0.975,0.707,0.316,0.558,0.520,��쐼,5.3,��
2024/05/03,05:50,0.517,0.783,0.490,0.976,0.706,0.316,0.558,0.521,��쐼,4.8,��
2024/05/03,06:00,0.515,0.785,0.490,0.977,0.707,0.317,0.559,0.520,�쐼,3.4,��
2024/05/03,06:10,0.517,0.785,0.491,0.976,0.705,0.316,0.559,0.521,�쐼,2.0,��
2024/05/03,06:20,0.515,0.785,0.490,0.976,0.707,0.316,0.560,0.519,�쐼,1.7,��
2024/05/03,06:30,0.515,0.784,0.491,0.978,0.709,0.316,0.558,0.521,��쐼,1.5,��
2024/05/03,06:40,0.516,0.787,0.490,0.978,0.708,0.318,0.558,0.519,��,1.7,��
2024/05/03,06:50,0.516,0.784,0.490,0.976,0.708,0.318,0.558,0.519,�쐼,2.3,��
2024/05/03,07:00,0.516,0.782,0.490,0.979,0.706,0.317,0.558,0.520,��,1.4,��
2024/05/03,07:10,0.517,0.783,0.490,0.978,0.707,0.315,0.559,0.521,��쓌,2.0,��
2024/05/03,07:20,0.516,0.784,0.490,0.977,0.707,0.316,0.560,0.521,�쓌,1.7,��
2024/05/03,07:30,0.516,0.784,0.490,0.978,0.706,0.315,0.559,0.521,��,1.7,��
2024/05/03,07:40,0.517,0.783,0.490,0.980,0.709,0.316,0.558,0.521,��,2.6,��
2024/05/03,07:50,0.514,0.783,0.490,0.977,0.706,0.314,0.559,0.522,���쓌,2.9,��
2024/05/03,08:00,0.514,0.784,0.490,0.980,0.707,0.314,0.557,0.523,���쓌,3.4,��
2024/05/03,08:10,0.515,0.784,0.490,0.979,0.706,0.315,0.556,0.520,���쓌,2.0,��
2024/05/03,08:20,0.515,0.783,0.491,0.977,0.706,0.316,0.559,0.520,�쓌,1.2,��
2024/05/03,08:30,0.515,0.782,0.490,0.979,0.708,0.316,0.559,0.519,�쓌,2.2,��
2024/05/03,08:40,0.514,0.786,0.490,0.980,0.705,0.317,0.557,0.518,�쓌,3.2,��
2024/05/03,08:50,0.515,0.783,0.491,0.979,0.707,0.315,0.557,0.520,��쓌,2.0,��
2024/05/03,09:00,0.515,0.786,0.491,0.979,0.706,0.317,0.557,0.519,�쓌,3.0,��
2024/05/03,09:10,0.515,0.783,0.490,0.978,0.706,0.317,0.556,0.520,��쓌,3.9,��
2024/05/03,09:20,0.515,0.785,0.490,0.981,0.708,0.317,0.557,0.519,��쓌,3.1,��
2024/05/03,09:30,0.516,0.785,0.489,0.980,0.707,0.318,0.556,0.519,�쓌,3.6,��
2024/05/03,09:40,0.515,0.785,0.490,0.980,0.708,0.317,0.556,0.519,�쓌,3.6,��
2024/05/03,09:50,0.516,0.784,0.489,0.979,0.706,0.316,0.555,0.521,�쓌,2.9,��
2024/05/03,10:00,0.515,0.784,0.490,0.980,0.711,0.318,0.557,0.519,�쓌,4.7,��
2024/05/03,10:10,0.515,0.784,0.489,0.983,0.706,0.317,0.557,0.519,�쓌,4.4,��
2024/05/03,10:20,0.516,0.787,0.491,0.980,0.707,0.318,0.556,0.520,�쓌,3.7,��
2024/05/03,10:30,0.517,0.785,0.489,0.981,0.709,0.319,0.557,0.519,�쓌,3.9,��
2024/05/03,10:40,0.517,0.786,0.491,0.981,0.707,0.316,0.556,0.520,�쓌,4.4,��
2024/05/03,10:50,0.518,0.787,0.491,0.980,0.707,0.318,0.556,0.519,�쓌,3.4,��
2024/05/03,11:00,0.515,0.786,0.492,0.982,0.707,0.317,0.557,0.520,�쓌,4.7,��
2024/05/03,11:10,0.517,0.788,0.491,0.982,0.710,0.316,0.556,0.519,�쓌,4.6,��
2024/05/03,11:20,0.516,0.787,0.491,0.981,0.708,0.316,0.558,0.519,�쓌,5.5,��
2024/05/03,11:30,0.517,0.786,0.491,0.977,0.709,0.317,0.559,0.521,�쓌,5.3,��
2024/05/03,11:40,0.517,0.787,0.491,0.978,0.710,0.319,0.558,0.520,��쓌,7.0,��
2024/05/03,11:50,0.519,0.785,0.492,0.981,0.710,0.319,0.556,0.521,��쓌,7.2,��
2024/05/03,12:00,0.516,0.787,0.493,0.979,0.709,0.318,0.557,0.520,��쓌,8.0,��
2024/05/03,12:10,0.518,0.788,0.493,0.977,0.712,0.317,0.557,0.520,��쓌,8.8,��
2024/05/03,12:20,0.517,0.789,0.490,0.978,0.708,0.318,0.558,0.519,��쓌,9.4,��
2024/05/03,12:30,0.517,0.786,0.490,0.979,0.710,0.318,0.557,0.519,��쓌,9.8,��
2024/05/03,12:40,0.517,0.791,0.491,0.975,0.710,0.318,0.559,0.519,��쓌,9.1,��
2024/05/03,12:50,0.518,0.787,0.491,0.979,0.710,0.317,0.559,0.520,��쓌,9.3,��
2024/05/03,13:00,0.518,0.788,0.493,0.978,0.711,0.318,0.560,0.521,��쓌,9.7,��
2024/05/03,13:10,0.517,0.785,0.493,0.980,0.712,0.318,0.558,0.522,��쓌,11.3,��
2024/05/03,13:20,0.518,0.789,0.494,0.981,0.713,0.318,0.559,0.520,��,10.8,��
2024/05/03,13:30,0.518,0.787,0.493,0.982,0.711,0.318,0.558,0.519,��,9.6,��
2024/05/03,13:40,0.517,0.788,0.492,0.983,0.710,0.317,0.558,0.519,��쓌,11.3,��
2024/05/03,13:50,0.519,0.788,0.494,0.982,0.712,0.318,0.559,0.521,��,9.6,��
2024/05/03,14:00,0.517,0.787,0.493,0.983,0.712,0.318,0.556,0.520,��,11.3,��
2024/05/03,14:10,0.517,0.786,0.492,0.984,0.710,0.318,0.558,0.520,��,10.3,��
2024/05/03,14:20,0.519,0.788,0.493,0.980,0.712,0.317,0.558,0.520,��,9.7,��
2024/05/03,14:30,0.518,0.788,0.492,0.980,0.712,0.318,0.558,0.520,��,7.6,��
2024/05/03,14:40,0.518,0.788,0.492,0.978,0.713,0.319,0.557,0.521,��,6.3,��
2024/05/03,14:50,0.518,0.787,0.493,0.980,0.710,0.318,0.558,0.521,��,7.2,��
2024/05/03,15:00,0.517,0.787,0.494,0.981,0.711,0.319,0.558,0.522,��,7.7,��
2024/05/03,15:10,0.519,0.788,0.495,0.978,0.712,0.319,0.559,0.522,��,8.1,��
2024/05/03,15:20,0.518,0.788,0.494,0.980,0.711,0.318,0.557,0.520,��,8.0,��
2024/05/03,15:30,0.518,0.787,0.493,0.982,0.712,0.317,0.557,0.520,��,8.8,��
2024/05/03,15:40,0.518,0.786,0.492,0.982,0.710,0.317,0.559,0.522,��,8.6,��
2024/05/03,15:50,0.518,0.786,0.492,0.980,0.713,0.318,0.559,0.521,��,8.3,��
2024/05/03,16:00,0.518,0.786,0.491,0.980,0.711,0.319,0.557,0.521,��,6.4,��
2024/05/03,16:10,0.518,0.786,0.492,0.980,0.711,0.319,0.558,0.520,��,6.1,��
2024/05/03,16:20,0.518,0.787,0.493,0.979,0.711,0.318,0.557,0.520,��,5.9,��
2024/05/03,16:30,0.517,0.788,0.491,0.981,0.710,0.319,0.556,0.520,��,6.3,��
2024/05/03,16:40,0.519,0.787,0.492,0.981,0.712,0.318,0.558,0.519,��,5.6,��
2024/05/03,16:50,0.519,0.786,0.492,0.980,0.711,0.319,0.558,0.521,��,6.0,��
2024/05/03,17:00,0.518,0.786,0.493,0.981,0.710,0.320,0.558,0.520,��,5.3,��
2024/05/03,17:10,0.517,0.787,0.491,0.982,0.711,0.320,0.558,0.520,��,5.3,��
2024/05/03,17:20,0.518,0.790,0.493,0.980,0.712,0.320,0.558,0.522,��,4.9,��
2024/05/03,17:30,0.517,0.788,0.493,0.981,0.711,0.320,0.557,0.521,��쐼,3.8,��
2024/05/03,17:40,0.517,0.790,0.495,0.980,0.711,0.320,0.557,0.523,��쐼,3.3,��
2024/05/03,17:50,0.517,0.788,0.494,0.981,0.712,0.322,0.558,0.523,��,1.5,��
2024/05/03,18:00,0.518,0.790,0.492,0.980,0.711,0.319,0.556,0.523,�k��,2.3,��
2024/05/03,18:10,0.516,0.791,0.492,0.982,0.711,0.319,0.555,0.524,�k��,1.5,��
2024/05/03,18:20,0.515,0.789,0.492,0.980,0.714,0.320,0.560,0.524,�k,2.6,��
2024/05/03,18:30,0.517,0.791,0.493,0.984,0.712,0.321,0.558,0.522,�k�k��,3.4,��
2024/05/03,18:40,0.518,0.788,0.495,0.984,0.715,0.319,0.558,0.522,�k,5.4,��
2024/05/03,18:50,0.519,0.789,0.495,0.985,0.713,0.320,0.559,0.521,�k,5.7,��
2024/05/03,19:00,0.520,0.789,0.496,0.984,0.714,0.320,0.558,0.521,�k,5.1,��
2024/05/03,19:10,0.519,0.791,0.495,0.985,0.714,0.319,0.559,0.524,�k,3.7,��
2024/05/03,19:20,0.519,0.789,0.495,0.984,0.715,0.321,0.560,0.521,�k,5.8,��
2024/05/03,19:30,0.519,0.788,0.495,0.984,0.713,0.321,0.558,0.522,�k,5.4,��
2024/05/03,19:40,0.518,0.791,0.494,0.981,0.714,0.318,0.560,0.522,�k,5.1,��
2024/05/03,19:50,0.520,0.791,0.494,0.986,0.714,0.320,0.560,0.521,�k�k��,4.2,��
2024/05/03,20:00,0.517,0.789,0.494,0.985,0.714,0.318,0.559,0.523,�k,3.2,��
2024/05/03,20:10,0.520,0.789,0.492,0.984,0.714,0.320,0.558,0.522,�k,2.6,��
2024/05/03,20:20,0.520,0.791,0.493,0.983,0.714,0.318,0.559,0.521,�k,2.2,��
2024/05/03,20:30,0.518,0.789,0.493,0.984,0.714,0.319,0.557,0.521,�k�k��,1.5,��
2024/05/03,20:40,0.519,0.789,0.493,0.984,0.713,0.321,0.558,0.522,��,1.2,��
2024/05/03,20:50,0.519,0.789,0.493,0.984,0.714,0.319,0.558,0.522,�쐼,0.9,��
2024/05/03,21:00,0.518,0.790,0.494,0.984,0.715,0.319,0.558,0.522,��쐼,1.7,��
2024/05/03,21:10,0.519,0.790,0.495,0.983,0.712,0.320,0.559,0.521,���쐼,1.4,��
2024/05/03,21:20,0.519,0.789,0.494,0.986,0.714,0.319,0.558,0.521,���k��,2.8,��
2024/05/03,21:30,0.519,0.788,0.495,0.981,0.712,0.321,0.561,0.522,�k�k��,3.5,��
2024/05/03,21:40,0.520,0.789,0.493,0.983,0.714,0.319,0.558,0.521,�k��,2.3,��
2024/05/03,21:50,0.519,0.789,0.493,0.984,0.713,0.320,0.558,0.522,���k��,1.2,��
2024/05/03,22:00,0.519,0.789,0.493,0.983,0.711,0.320,0.558,0.523,���쐼,1.2,��
2024/05/03,22:10,0.519,0.789,0.493,0.982,0.713,0.318,0.558,0.523,��,3.0,��
2024/05/03,22:20,0.518,0.790,0.494,0.983,0.713,0.319,0.557,0.523,���k��,2.2,��
2024/05/03,22:30,0.519,0.789,0.490,0.983,0.712,0.319,0.559,0.521,���k��,2.6,��
2024/05/03,22:40,0.516,0.790,0.491,0.983,0.712,0.319,0.559,0.521,���k��,1.5,��
2024/05/03,22:50,0.519,0.786,0.494,0.985,0.712,0.318,0.557,0.520,���k��,4.2,��
2024/05/03,23:00,0.517,0.789,0.492,0.984,0.714,0.319,0.558,0.521,�k��,4.6,��
2024/05/03,23:10,0.519,0.788,0.495,0.984,0.710,0.318,0.557,0.522,�k��,6.1,��
2024/05/03,23:20,0.518,0.790,0.494,0.982,0.713,0.319,0.558,0.520,�k��,7.2,��
2024/05/03,23:30,0.519,0.789,0.493,0.984,0.713,0.319,0.558,0.521,�k��,5.7,��
2024/05/03,23:40,0.518,0.787,0.492,0.986,0.712,0.320,0.557,0.521,�k��,6.5,��
2024/05/03,23:50,0.517,0.788,0.494,0.986,0.712,0.319,0.557,0.522,���k��,5.1,��
